Location: Newark
(22.2167°N, 96.1167°E)
Time: 03:00:19
(UTC+00:00)

LightSail 2 - Visible Passes

Search period start: 16 December 2019 00:00
Search period end: 26 December 2019 00:00
Orbit: 696 x 730 km, 24.0° (Epoch: 15 December)

Date Brightness Start Highest point End Pass type
(mag) Time Alt. Az. Time Alt. Az. Time Alt. Az.
17 Dec 8.1 11:27:51 10° SW 11:29:28 11° SSW 11:31:04 10° S visible
19 Dec 7.8 23:44:54 10° S 23:47:51 15° SSE 23:50:49 10° ESE visible
20 Dec 8.1 22:49:00 10° SSE 22:49:46 10° SSE 22:50:33 10° SE visible
21 Dec 7.2 23:32:40 10° SSW 23:36:49 25° SSE 23:41:00 10° ESE visible
22 Dec 7.5 22:35:16 10° SSW 22:38:44 18° SSE 22:42:13 10° ESE visible
23 Dec 7.7 21:39:36 12° SSE 21:40:38 13° SSE 21:42:53 10° SE visible
23 Dec 6.3 23:21:05 10° SW 23:25:48 40° SSE 23:30:33 10° E visible
24 Dec 6.7 22:24:48 18° SSW 22:27:40 30° SSE 22:32:05 10° E visible
25 Dec 7.4 21:30:51 20° SE 21:30:51 20° SE 21:33:26 10° ESE visible
25 Dec 5.5 23:09:51 10° WSW 23:14:47 61° SSE 23:19:48 10° E visible
